,,,PA_Meas_PMT16A,,PR_Meas_QMR101_102,,RH_Meas_QMH101,,SR_Meas_QMS101,,TA_Meas_QMH101,,GenWind,,GenWind,
date,time,status,PA,status,PR,status,RH,status,SR,status,TA,status,DirAvg,status,SpdAvg,
2013-01-19, 00:00:04,VALID,1009.88,VALID,0,VALID,104,VALID,0,VALID,23.9668,VALID,5,VALID,0.115234,
2013-01-19, 00:01:04,VALID,1009.87,VALID,0,VALID,104,VALID,0,VALID,23.9668,VALID,6,VALID,0.109375,
2013-01-19, 00:02:04,VALID,1009.85,VALID,0,VALID,104,VALID,0,VALID,23.9668,VALID,6,VALID,0,
2013-01-19, 00:03:04,VALID,1009.83,VALID,0,VALID,104,VALID,0,VALID,23.9668,VALID,5,VALID,0.0652344,
2013-01-19, 00:04:04,VALID,1009.82,VALID,0,VALID,104,VALID,0,VALID,23.9668,VALID,5,VALID,0,
2013-01-19, 00:05:04,VALID,1009.8,VALID,0,VALID,104,VALID,0,VALID,23.9668,VALID,5,VALID,0.144531,
2013-01-19, 00:06:04,VALID,1009.79,VALID,0,VALID,104,VALID,0,VALID,23.9863,VALID,5,VALID,0.009375,
2013-01-19, 00:07:04,VALID,1009.77,VALID,0,VALID,104,VALID,0,VALID,23.9668,VALID,5,VALID,0.0359375,
2013-01-19, 00:08:04,VALID,1009.75,VALID,0,VALID,104,VALID,0,VALID,23.9668,VALID,5,VALID,0.292188,
2013-01-19, 00:09:04,VALID,1009.72,VALID,0,VALID,104,VALID,0,VALID,23.9668,VALID,5,VALID,0.241797,
2013-01-19, 00:10:04,VALID,1009.74,VALID,0,VALID,104,VALID,0,VALID,23.9473,VALID,5,VALID,0.0292969,
2013-01-19, 00:11:04,VALID,1009.69,VALID,0,VALID,104,VALID,0,VALID,23.9278,VALID,5,VALID,0,
2013-01-19, 00:12:04,VALID,1009.71,VALID,0,VALID,104,VALID,0,VALID,23.9084,VALID,5,VALID,0,
2013-01-19, 00:13:04,VALID,1009.67,VALID,0,VALID,104,VALID,0,VALID,23.9084,VALID,5,VALID,0,
2013-01-19, 00:14:04,VALID,1009.7,VALID,0,VALID,104,VALID,0,VALID,23.8889,VALID,6,VALID,0,
2013-01-19, 00:15:04,VALID,1009.68,VALID,0,VALID,104,VALID,0,VALID,23.8694,VALID,5,VALID,0.104297,
2013-01-19, 00:16:04,VALID,1009.65,VALID,0,VALID,104,VALID,0,VALID,23.8304,VALID,5,VALID,0.199219,
2013-01-19, 00:17:04,VALID,1009.6,VALID,0,VALID,104,VALID,0,VALID,23.8304,VALID,5,VALID,0.195313,
2013-01-19, 00:18:04,VALID,1009.61,VALID,0,VALID,104,VALID,0,VALID,23.7896,VALID,5,VALID,0.153125,
2013-01-19, 00:19:04,VALID,1009.54,VALID,0,VALID,104,VALID,0,VALID,23.8109,VALID,5,VALID,0.114063,
2013-01-19, 00:20:04,VALID,1009.5,VALID,0,VALID,104,VALID,0,VALID,23.7914,VALID,5,VALID,0.291016,
2013-01-19, 00:21:04,VALID,1009.5,VALID,0,VALID,104,VALID,0,VALID,23.7914,VALID,5,VALID,0.221484,
2013-01-19, 00:22:04,VALID,1009.44,VALID,0,VALID,104,VALID,0,VALID,23.7312,VALID,5,VALID,0.385938,
2013-01-19, 00:23:04,VALID,1009.45,VALID,0,VALID,104,VALID,0,VALID,23.7525,VALID,6,VALID,0.351172,
2013-01-19, 00:24:04,VALID,1009.44,VALID,0,VALID,104,VALID,0,VALID,23.6922,VALID,5,VALID,0.247266,
2013-01-19, 00:25:04,VALID,1009.42,VALID,0,VALID,104,VALID,0,VALID,23.694,VALID,5,VALID,0.225391,
2013-01-19, 00:26:04,VALID,1009.4,VALID,0,VALID,104,VALID,0,VALID,23.655,VALID,5,VALID,0.215625,
2013-01-19, 00:27:04,VALID,1009.37,VALID,0,VALID,104,VALID,0,VALID,23.6356,VALID,5,VALID,0.207813,
2013-01-19, 00:28:04,VALID,1009.35,VALID,0,VALID,104,VALID,0,VALID,23.6161,VALID,5,VALID,0.356641,
2013-01-19, 00:29:04,VALID,1009.31,VALID,0,VALID,104,VALID,0,VALID,23.6356,VALID,5,VALID,0.237109,
2013-01-19, 00:30:04,VALID,1009.31,VALID,0,VALID,104,VALID,0,VALID,23.6143,VALID,5,VALID,0.273047,
2013-01-19, 00:31:04,VALID,1009.27,VALID,0,VALID,104,VALID,0,VALID,23.6161,VALID,5,VALID,0.0558594,
2013-01-19, 00:32:04,VALID,1009.27,VALID,0,VALID,104,VALID,0,VALID,23.6161,VALID,5,VALID,0.282813,
2013-01-19, 00:33:04,VALID,1009.28,VALID,0,VALID,104,VALID,0,VALID,23.6161,VALID,5,VALID,0.078125,
2013-01-19, 00:34:04,VALID,1009.29,VALID,0,VALID,104,VALID,0,VALID,23.6161,VALID,5,VALID,0.137109,
2013-01-19, 00:35:04,VALID,1009.28,VALID,0,VALID,104,VALID,0,VALID,23.5966,VALID,5,VALID,0,
2013-01-19, 00:36:04,VALID,1009.29,VALID,0,VALID,104,VALID,0.112112,VALID,23.5771,VALID,5,VALID,0,
2013-01-19, 00:37:04,VALID,1009.26,VALID,0,VALID,104,VALID,0,VALID,23.5576,VALID,5,VALID,0,
2013-01-19, 00:38:04,VALID,1009.27,VALID,0,VALID,104,VALID,0,VALID,23.5381,VALID,5,VALID,0,
2013-01-19, 00:39:04,VALID,1009.27,VALID,0,VALID,104,VALID,0,VALID,23.4974,VALID,5,VALID,0,
2013-01-19, 00:40:04,VALID,1009.25,VALID,0,VALID,104,VALID,0,VALID,23.4992,VALID,5,VALID,0.101953,
2013-01-19, 00:41:04,VALID,1009.23,VALID,0,VALID,104,VALID,0,VALID,23.4779,VALID,5,VALID,0.382031,
2013-01-19, 00:42:04,VALID,1009.24,VALID,0,VALID,104,VALID,0,VALID,23.4389,VALID,5,VALID,0.302344,
2013-01-19, 00:43:04,VALID,1009.22,VALID,0,VALID,104,VALID,0,VALID,23.4389,VALID,5,VALID,0.243359,
2013-01-19, 00:44:04,VALID,1009.2,VALID,0,VALID,104,VALID,0,VALID,23.4389,VALID,5,VALID,0.252734,
2013-01-19, 00:45:04,VALID,1009.18,VALID,0,VALID,104,VALID,0,VALID,23.4212,VALID,5,VALID,0.256641,
2013-01-19, 00:46:04,VALID,1009.19,VALID,0,VALID,104,VALID,0,VALID,23.4212,VALID,5,VALID,0.133594,
2013-01-19, 00:47:04,VALID,1009.16,VALID,0,VALID,104,VALID,0,VALID,23.4212,VALID,5,VALID,0.122266,
2013-01-19, 00:48:04,VALID,1009.18,VALID,0,VALID,104,VALID,0,VALID,23.4212,VALID,5,VALID,0.176172,
2013-01-19, 00:49:04,VALID,1009.17,VALID,0,VALID,104,VALID,0,VALID,23.4212,VALID,5,VALID,0,
2013-01-19, 00:50:04,VALID,1009.15,VALID,0,VALID,104,VALID,0,VALID,23.4,VALID,5,VALID,0,
2013-01-19, 00:51:04,VALID,1009.15,VALID,0,VALID,104,VALID,0,VALID,23.4407,VALID,5,VALID,0,
2013-01-19, 00:52:04,VALID,1009.14,VALID,0,VALID,104,VALID,0,VALID,23.4194,VALID,5,VALID,0.00664063,
2013-01-19, 00:53:04,VALID,1009.14,VALID,0,VALID,104,VALID,0,VALID,23.4407,VALID,5,VALID,0.0277344,
2013-01-19, 00:54:04,VALID,1009.13,VALID,0,VALID,104,VALID,0.112112,VALID,23.4,VALID,5,VALID,0.322266,
2013-01-19, 00:55:04,VALID,1009.14,VALID,0,VALID,104,VALID,0,VALID,23.361,VALID,5,VALID,0.391797,
2013-01-19, 00:56:04,VALID,1009.15,VALID,0,VALID,104,VALID,0,VALID,23.3433,VALID,5,VALID,0.415625,
2013-01-19, 00:57:04,VALID,1009.17,VALID,0,VALID,104,VALID,0,VALID,23.3238,VALID,5,VALID,0.434766,
2013-01-19, 00:58:04,VALID,1009.15,VALID,0,VALID,104,VALID,0,VALID,23.3026,VALID,5,VALID,0.251172,
2013-01-19, 00:59:04,VALID,1009.18,VALID,0,VALID,104,VALID,0.112112,VALID,23.3238,VALID,5,VALID,0.234766,
2013-01-19, 01:00:04,VALID,1009.2,VALID,0,VALID,104,VALID,0,VALID,23.3238,VALID,5,VALID,0.15625,
2013-01-19, 01:01:04,VALID,1009.17,VALID,0,VALID,104,VALID,0,VALID,23.3043,VALID,5,VALID,0.00117188,
2013-01-19, 01:02:04,VALID,1009.18,VALID,0,VALID,104,VALID,0,VALID,23.3043,VALID,5,VALID,0.208594,
2013-01-19, 01:03:04,VALID,1009.19,VALID,0,VALID,104,VALID,0,VALID,23.3238,VALID,5,VALID,0.171484,
2013-01-19, 01:04:04,VALID,1009.2,VALID,0,VALID,104,VALID,0,VALID,23.3238,VALID,5,VALID,0.428906,
2013-01-19, 01:05:04,VALID,1009.19,VALID,0,VALID,104,VALID,0,VALID,23.3433,VALID,5,VALID,0.406641,
2013-01-19, 01:06:04,VALID,1009.19,VALID,0,VALID,104,VALID,0,VALID,23.2831,VALID,5,VALID,0.370703,
2013-01-19, 01:07:04,VALID,1009.17,VALID,0,VALID,104,VALID,0,VALID,23.2654,VALID,5,VALID,0.330859,
2013-01-19, 01:08:04,VALID,1009.18,VALID,0,VALID,104,VALID,0,VALID,23.2654,VALID,5,VALID,0.216016,
2013-01-19, 01:09:04,VALID,1009.16,VALID,0,VALID,104,VALID,0,VALID,23.2069,VALID,5,VALID,0.167969,
2013-01-19, 01:10:04,VALID,1009.15,VALID,0,VALID,104,VALID,0,VALID,23.1874,VALID,5,VALID,0.0015625,
2013-01-19, 01:11:04,VALID,1009.14,VALID,0,VALID,104,VALID,0,VALID,23.1679,VALID,5,VALID,0,
2013-01-19, 01:12:04,VALID,1009.14,VALID,0,VALID,104,VALID,0,VALID,23.1485,VALID,5,VALID,0,
2013-01-19, 01:13:04,VALID,1009.1,VALID,0,VALID,104,VALID,0.112112,VALID,23.129,VALID,5,VALID,0.0644531,
2013-01-19, 01:14:04,VALID,1009.1,VALID,0,VALID,104,VALID,0,VALID,23.1485,VALID,5,VALID,0.130078,
2013-01-19, 01:15:04,VALID,1009.11,VALID,0,VALID,104,VALID,0,VALID,23.1272,VALID,5,VALID,0.153125,
2013-01-19, 01:16:04,VALID,1009.11,VALID,0,VALID,104,VALID,0,VALID,23.1485,VALID,5,VALID,0.149219,
2013-01-19, 01:17:04,VALID,1009.09,VALID,0,VALID,104,VALID,0,VALID,23.1485,VALID,5,VALID,0.105859,
2013-01-19, 01:18:04,VALID,1009.11,VALID,0,VALID,104,VALID,0,VALID,23.1679,VALID,5,VALID,0.236328,
2013-01-19, 01:19:04,VALID,1009.08,VALID,0,VALID,104,VALID,0,VALID,23.1679,VALID,5,VALID,0.102734,
2013-01-19, 01:20:04,VALID,1009.09,VALID,0,VALID,104,VALID,0,VALID,23.1467,VALID,5,VALID,0,
2013-01-19, 01:21:04,VALID,1009.06,VALID,0,VALID,104,VALID,0,VALID,23.1679,VALID,5,VALID,0,
2013-01-19, 01:22:04,VALID,1009.03,VALID,0,VALID,104,VALID,0,VALID,23.1485,VALID,5,VALID,0,
2013-01-19, 01:23:04,VALID,1009.05,VALID,0,VALID,104,VALID,0,VALID,23.129,VALID,5,VALID,0,
2013-01-19, 01:24:04,VALID,1009.06,VALID,0,VALID,104,VALID,0,VALID,23.1485,VALID,5,VALID,0,
2013-01-19, 01:25:04,VALID,1009.03,VALID,0,VALID,104,VALID,0,VALID,23.1679,VALID,5,VALID,0,
2013-01-19, 01:26:04,VALID,1009.05,VALID,0,VALID,104,VALID,0,VALID,23.1679,VALID,5,VALID,0.104687,
2013-01-19, 01:27:04,VALID,1009.03,VALID,0,VALID,104,VALID,0,VALID,23.1679,VALID,5,VALID,0.463672,
2013-01-19, 01:28:04,VALID,1009.03,VALID,0,VALID,104,VALID,0,VALID,23.1485,VALID,5,VALID,0.440234,
2013-01-19, 01:29:04,VALID,1009.05,VALID,0,VALID,104,VALID,0,VALID,23.1077,VALID,5,VALID,0.509375,
2013-01-19, 01:30:04,VALID,1009.01,VALID,0,VALID,104,VALID,0,VALID,23.129,VALID,5,VALID,0.349219,
2013-01-19, 01:31:04,VALID,1009.02,VALID,0,VALID,104,VALID,0,VALID,23.129,VALID,5,VALID,0.374609,
2013-01-19, 01:32:04,VALID,1009.03,VALID,0,VALID,104,VALID,0,VALID,23.1095,VALID,5,VALID,0.355469,
2013-01-19, 01:33:04,VALID,1009.05,VALID,0,VALID,104,VALID,0,VALID,23.1095,VALID,5,VALID,0.303906,
2013-01-19, 01:34:04,VALID,1009.04,VALID,0,VALID,104,VALID,0,VALID,23.129,VALID,5,VALID,0.267969,
2013-01-19, 01:35:04,VALID,1009.05,VALID,0,VALID,104,VALID,0,VALID,23.129,VALID,5,VALID,0.132813,
2013-01-19, 01:36:04,VALID,1009.01,VALID,0,VALID,104,VALID,0,VALID,23.129,VALID,5,VALID,0.0457031,
2013-01-19, 01:37:04,VALID,1009,VALID,0,VALID,104,VALID,0,VALID,23.129,VALID,5,VALID,0,
2013-01-19, 01:38:04,VALID,1008.97,VALID,0,VALID,104,VALID,0,VALID,23.1095,VALID,5,VALID,0,
2013-01-19, 01:39:04,VALID,1008.96,VALID,0,VALID,104,VALID,0,VALID,23.0705,VALID,5,VALID,0,
2013-01-19, 01:40:04,VALID,1008.93,VALID,0,VALID,104,VALID,0,VALID,23.0316,VALID,5,VALID,0,
2013-01-19, 01:41:04,VALID,1008.93,VALID,0,VALID,104,VALID,0,VALID,22.9926,VALID,5,VALID,0.398828,
2013-01-19, 01:42:04,VALID,1008.93,VALID,0,VALID,104,VALID,0,VALID,22.9731,VALID,5,VALID,0.390625,
2013-01-19, 01:43:04,VALID,1008.92,VALID,0,VALID,104,VALID,0,VALID,22.9731,VALID,5,VALID,0.198437,
2013-01-19, 01:44:04,VALID,1008.87,VALID,0,VALID,104,VALID,0,VALID,22.9536,VALID,5,VALID,0.175,
2013-01-19, 01:45:04,VALID,1008.86,VALID,0,VALID,104,VALID,0,VALID,22.9536,VALID,5,VALID,0.260547,
2013-01-19, 01:46:04,VALID,1008.86,VALID,0,VALID,104,VALID,0,VALID,22.9731,VALID,5,VALID,0.178906,
2013-01-19, 01:47:04,VALID,1008.83,VALID,0,VALID,104,VALID,0,VALID,22.9926,VALID,5,VALID,0.149219,
2013-01-19, 01:48:04,VALID,1008.79,VALID,0,VALID,104,VALID,0,VALID,23.0121,VALID,5,VALID,0.0667969,
2013-01-19, 01:49:04,VALID,1008.77,VALID,0,VALID,104,VALID,0,VALID,23.0121,VALID,5,VALID,0,
2013-01-19, 01:50:04,VALID,1008.76,VALID,0,VALID,104,VALID,0,VALID,23.0103,VALID,5,VALID,0,
2013-01-19, 01:51:04,VALID,1008.76,VALID,0,VALID,104,VALID,0,VALID,23.0298,VALID,5,VALID,0,
2013-01-19, 01:52:04,VALID,1008.74,VALID,0,VALID,104,VALID,0,VALID,23.0121,VALID,5,VALID,0.215234,
2013-01-19, 01:53:04,VALID,1008.75,VALID,0,VALID,104,VALID,0,VALID,22.9536,VALID,5,VALID,0.269531,
2013-01-19, 01:54:04,VALID,1008.72,VALID,0,VALID,104,VALID,0,VALID,22.9342,VALID,6,VALID,0.218359,
2013-01-19, 01:55:04,VALID,1008.73,VALID,0,VALID,104,VALID,0,VALID,22.9147,VALID,6,VALID,0.2,
2013-01-19, 01:56:04,VALID,1008.71,VALID,0,VALID,104,VALID,0,VALID,22.874,VALID,5,VALID,0.164063,
2013-01-19, 01:57:04,VALID,1008.7,VALID,0,VALID,104,VALID,0,VALID,22.9147,VALID,6,VALID,0.130469,
2013-01-19, 01:58:04,VALID,1008.68,VALID,0,VALID,104,VALID,0,VALID,22.8952,VALID,5,VALID,0.0996094,
2013-01-19, 01:59:04,VALID,1008.66,VALID,0,VALID,104,VALID,0.112112,VALID,22.8757,VALID,6,VALID,0,
2013-01-19, 02:00:04,VALID,1008.65,VALID,0,VALID,104,VALID,0,VALID,22.8757,VALID,5,VALID,0,
2013-01-19, 02:01:04,VALID,1008.62,VALID,0,VALID,104,VALID,0,VALID,22.8562,VALID,5,VALID,0.0308594,
2013-01-19, 02:02:04,VALID,1008.65,VALID,0,VALID,104,VALID,0,VALID,22.8562,VALID,6,VALID,0.209375,
2013-01-19, 02:03:04,VALID,1008.66,VALID,0,VALID,104,VALID,0,VALID,22.8562,VALID,5,VALID,0.0210938,
2013-01-19, 02:04:04,VALID,1008.65,VALID,0,VALID,104,VALID,0,VALID,22.8562,VALID,5,VALID,0,
2013-01-19, 02:05:04,VALID,1008.69,VALID,0,VALID,104,VALID,0,VALID,22.8368,VALID,6,VALID,0,
2013-01-19, 02:06:04,VALID,1008.72,VALID,0,VALID,104,VALID,0,VALID,22.8368,VALID,5,VALID,0.203125,
2013-01-19, 02:07:04,VALID,1008.75,VALID,0,VALID,104,VALID,0,VALID,22.8173,VALID,5,VALID,0.242188,
2013-01-19, 02:08:04,VALID,1008.79,VALID,0,VALID,104,VALID,0.112112,VALID,22.8368,VALID,5,VALID,0.430469,
2013-01-19, 02:09:04,VALID,1008.82,VALID,0,VALID,104,VALID,0,VALID,22.8368,VALID,5,VALID,0.569141,
2013-01-19, 02:10:04,VALID,1008.84,VALID,0,VALID,104,VALID,0,VALID,22.8562,VALID,5,VALID,0.442187,
2013-01-19, 02:11:04,VALID,1008.87,VALID,0,VALID,104,VALID,0,VALID,22.8757,VALID,5,VALID,0.488672,
2013-01-19, 02:12:04,VALID,1008.87,VALID,0,VALID,104,VALID,0.112112,VALID,22.8562,VALID,5,VALID,0.496094,
2013-01-19, 02:13:04,VALID,1008.84,VALID,0,VALID,104,VALID,0,VALID,22.8368,VALID,5,VALID,0.372656,
2013-01-19, 02:14:04,VALID,1008.86,VALID,0,VALID,104,VALID,0,VALID,22.8562,VALID,5,VALID,0.363281,
2013-01-19, 02:15:04,VALID,1008.86,VALID,0,VALID,104,VALID,0,VALID,22.8155,VALID,5,VALID,0.196484,
2013-01-19, 02:16:04,VALID,1008.86,VALID,0,VALID,104,VALID,0,VALID,22.7961,VALID,5,VALID,0.221484,
2013-01-19, 02:17:04,VALID,1008.84,VALID,0,VALID,104,VALID,0,VALID,22.7978,VALID,5,VALID,0.103516,
2013-01-19, 02:18:04,VALID,1008.83,VALID,0,VALID,104,VALID,0,VALID,22.7978,VALID,5,VALID,0,
2013-01-19, 02:19:04,VALID,1008.81,VALID,0,VALID,104,VALID,0,VALID,22.7978,VALID,5,VALID,0,
2013-01-19, 02:20:04,VALID,1008.8,VALID,0,VALID,104,VALID,0,VALID,22.7978,VALID,5,VALID,0,
2013-01-19, 02:21:04,VALID,1008.81,VALID,0,VALID,104,VALID,0,VALID,22.7766,VALID,5,VALID,0,
2013-01-19, 02:22:04,VALID,1008.81,VALID,0,VALID,104,VALID,0,VALID,22.8173,VALID,5,VALID,0,
2013-01-19, 02:23:04,VALID,1008.79,VALID,0,VALID,104,VALID,0,VALID,22.8173,VALID,5,VALID,0,
2013-01-19, 02:24:04,VALID,1008.81,VALID,0,VALID,104,VALID,0,VALID,22.8368,VALID,5,VALID,0,
2013-01-19, 02:25:04,VALID,1008.78,VALID,0,VALID,104,VALID,0,VALID,22.8385,VALID,5,VALID,0.244141,
2013-01-19, 02:26:04,VALID,1008.76,VALID,0,VALID,104,VALID,0,VALID,22.858,VALID,5,VALID,0.223438,
2013-01-19, 02:27:04,VALID,1008.73,VALID,0,VALID,104,VALID,0,VALID,22.8368,VALID,5,VALID,0.352344,
2013-01-19, 02:28:04,VALID,1008.73,VALID,0,VALID,104,VALID,0,VALID,22.8757,VALID,5,VALID,0.210156,
2013-01-19, 02:29:04,VALID,1008.7,VALID,0,VALID,104,VALID,0,VALID,22.9147,VALID,5,VALID,0.339844,
2013-01-19, 02:30:04,VALID,1008.68,VALID,0,VALID,104,VALID,0,VALID,22.9342,VALID,5,VALID,0.202734,
2013-01-19, 02:31:04,VALID,1008.64,VALID,0,VALID,104,VALID,0,VALID,22.9342,VALID,5,VALID,0.271484,
2013-01-19, 02:32:04,VALID,1008.68,VALID,0,VALID,104,VALID,0,VALID,22.9536,VALID,5,VALID,0.29375,
2013-01-19, 02:33:04,VALID,1008.68,VALID,0,VALID,104,VALID,0,VALID,22.9731,VALID,5,VALID,0.250781,
2013-01-19, 02:34:04,VALID,1008.68,VALID,0,VALID,104,VALID,0,VALID,22.9536,VALID,5,VALID,0.473047,
2013-01-19, 02:35:04,VALID,1008.68,VALID,0,VALID,104,VALID,0,VALID,22.9731,VALID,5,VALID,0.187109,
2013-01-19, 02:36:04,VALID,1008.67,VALID,0,VALID,104,VALID,0.112112,VALID,22.9519,VALID,5,VALID,0.176953,
2013-01-19, 02:37:04,VALID,1008.67,VALID,0,VALID,104,VALID,0,VALID,22.9536,VALID,5,VALID,0.237109,
2013-01-19, 02:38:04,VALID,1008.66,VALID,0,VALID,104,VALID,0,VALID,22.9342,VALID,5,VALID,0,
2013-01-19, 02:39:04,VALID,1008.64,VALID,0,VALID,104,VALID,0,VALID,22.9147,VALID,5,VALID,0,
2013-01-19, 02:40:04,VALID,1008.64,VALID,0,VALID,104,VALID,0,VALID,22.8952,VALID,5,VALID,0,
2013-01-19, 02:41:04,VALID,1008.63,VALID,0,VALID,104,VALID,0,VALID,22.9147,VALID,5,VALID,0,
2013-01-19, 02:42:04,VALID,1008.68,VALID,0,VALID,104,VALID,0,VALID,22.9147,VALID,5,VALID,0.00976563,
2013-01-19, 02:43:04,VALID,1008.69,VALID,0,VALID,104,VALID,0,VALID,22.9342,VALID,5,VALID,0.0609375,
2013-01-19, 02:44:04,VALID,1008.72,VALID,0,VALID,104,VALID,0,VALID,22.9536,VALID,5,VALID,0.180078,
2013-01-19, 02:45:04,VALID,1008.73,VALID,0,VALID,104,VALID,0,VALID,22.9536,VALID,5,VALID,0.167578,
2013-01-19, 02:46:04,VALID,1008.74,VALID,0,VALID,104,VALID,0,VALID,22.9342,VALID,5,VALID,0.515625,
2013-01-19, 02:47:04,VALID,1008.77,VALID,0,VALID,104,VALID,0,VALID,22.9342,VALID,5,VALID,0.583984,
2013-01-19, 02:48:04,VALID,1008.77,VALID,0,VALID,104,VALID,0,VALID,22.9342,VALID,6,VALID,0.739062,
2013-01-19, 02:49:04,VALID,1008.81,VALID,0,VALID,104,VALID,0,VALID,22.9342,VALID,29,VALID,0.727344,
2013-01-19, 02:50:04,VALID,1008.8,VALID,0,VALID,104,VALID,0,VALID,22.9536,VALID,39,VALID,0.535156,
2013-01-19, 02:51:04,VALID,1008.81,VALID,0,VALID,104,VALID,0,VALID,22.9731,VALID,52,VALID,0.658984,
2013-01-19, 02:52:04,VALID,1008.82,VALID,0,VALID,104,VALID,0,VALID,23.0138,VALID,69,VALID,0.928906,
2013-01-19, 02:53:04,VALID,1008.82,VALID,0,VALID,104,VALID,0,VALID,23.0121,VALID,68,VALID,0.517969,
2013-01-19, 02:54:04,VALID,1008.8,VALID,0,VALID,104,VALID,0,VALID,23.0121,VALID,63,VALID,1.23359,
2013-01-19, 02:55:04,VALID,1008.8,VALID,0,VALID,104,VALID,0,VALID,23.0121,VALID,63,VALID,0.778906,
2013-01-19, 02:56:04,VALID,1008.83,VALID,0,VALID,104,VALID,0,VALID,23.0121,VALID,79,VALID,1.08984,
2013-01-19, 02:57:04,VALID,1008.82,VALID,0,VALID,104,VALID,0,VALID,23.0121,VALID,76,VALID,0.744531,
2013-01-19, 02:58:04,VALID,1008.84,VALID,0,VALID,104,VALID,0,VALID,22.9926,VALID,77,VALID,0.800391,
2013-01-19, 02:59:04,VALID,1008.85,VALID,0,VALID,104,VALID,0,VALID,23.0121,VALID,78,VALID,0.613281,
2013-01-19, 03:00:04,VALID,1008.82,VALID,0,VALID,104,VALID,0,VALID,23.0316,VALID,78,VALID,0.0792969,
2013-01-19, 03:01:04,VALID,1008.83,VALID,0,VALID,104,VALID,0,VALID,23.0121,VALID,78,VALID,0.0648438,
2013-01-19, 03:02:04,VALID,1008.84,VALID,0,VALID,104,VALID,0,VALID,23.0103,VALID,78,VALID,0.241016,
2013-01-19, 03:03:04,VALID,1008.81,VALID,0,VALID,104,VALID,0,VALID,23.0121,VALID,78,VALID,0.317578,
2013-01-19, 03:04:04,VALID,1008.82,VALID,0,VALID,104,VALID,0,VALID,23.0121,VALID,78,VALID,0.338281,
2013-01-19, 03:05:04,VALID,1008.83,VALID,0,VALID,104,VALID,0,VALID,22.9714,VALID,58,VALID,0.189453,
2013-01-19, 03:06:04,VALID,1008.84,VALID,0,VALID,104,VALID,0,VALID,22.9926,VALID,58,VALID,0.140234,
2013-01-19, 03:07:04,VALID,1008.84,VALID,0,VALID,104,VALID,0,VALID,22.9519,VALID,58,VALID,0.303516,
2013-01-19, 03:08:04,VALID,1008.87,VALID,0,VALID,104,VALID,0,VALID,22.9731,VALID,58,VALID,0,
2013-01-19, 03:09:04,VALID,1008.89,VALID,0,VALID,104,VALID,0,VALID,22.9731,VALID,58,VALID,0.126563,
2013-01-19, 03:10:04,VALID,1008.88,VALID,0,VALID,104,VALID,0,VALID,22.9342,VALID,58,VALID,0,
2013-01-19, 03:11:04,VALID,1008.93,VALID,0,VALID,104,VALID,0,VALID,22.9536,VALID,58,VALID,0,
2013-01-19, 03:12:04,VALID,1008.91,VALID,0,VALID,104,VALID,0,VALID,22.9536,VALID,58,VALID,0.153125,
2013-01-19, 03:13:04,VALID,1008.93,VALID,0,VALID,104,VALID,0,VALID,22.9324,VALID,58,VALID,0.130078,
2013-01-19, 03:14:04,VALID,1008.91,VALID,0,VALID,104,VALID,0,VALID,22.9536,VALID,58,VALID,0.341797,
2013-01-19, 03:15:04,VALID,1008.92,VALID,0,VALID,104,VALID,0,VALID,22.9342,VALID,58,VALID,0.257031,
2013-01-19, 03:16:04,VALID,1008.9,VALID,0,VALID,104,VALID,0,VALID,22.9147,VALID,58,VALID,0.362891,
2013-01-19, 03:17:04,VALID,1008.88,VALID,0,VALID,104,VALID,0,VALID,22.8935,VALID,58,VALID,0.539063,
2013-01-19, 03:18:04,VALID,1008.85,VALID,0,VALID,104,VALID,0,VALID,22.9147,VALID,58,VALID,0.374609,
2013-01-19, 03:19:04,VALID,1008.85,VALID,0,VALID,104,VALID,0,VALID,22.9147,VALID,58,VALID,0.113672,
2013-01-19, 03:20:04,VALID,1008.85,VALID,0,VALID,104,VALID,0,VALID,22.9147,VALID,58,VALID,0.1625,
2013-01-19, 03:21:04,VALID,1008.83,VALID,0,VALID,104,VALID,0,VALID,22.9342,VALID,58,VALID,0.0535156,
2013-01-19, 03:22:04,VALID,1008.85,VALID,0,VALID,104,VALID,0,VALID,22.9147,VALID,58,VALID,0.116016,
2013-01-19, 03:23:04,VALID,1008.88,VALID,0,VALID,104,VALID,0,VALID,22.9147,VALID,58,VALID,0.305078,
2013-01-19, 03:24:04,VALID,1008.9,VALID,0,VALID,104,VALID,0,VALID,22.9147,VALID,62,VALID,0.804297,
2013-01-19, 03:25:04,VALID,1008.92,VALID,0,VALID,104,VALID,0,VALID,22.9342,VALID,67,VALID,1.40508,
2013-01-19, 03:26:04,VALID,1008.93,VALID,0,VALID,104,VALID,0,VALID,22.9342,VALID,72,VALID,0.96875,
2013-01-19, 03:27:04,VALID,1008.91,VALID,0,VALID,104,VALID,0,VALID,22.9129,VALID,62,VALID,1.19141,
2013-01-19, 03:28:04,VALID,1008.9,VALID,0,VALID,104,VALID,0,VALID,22.9342,VALID,57,VALID,0.84375,
2013-01-19, 03:29:04,VALID,1008.91,VALID,0,VALID,104,VALID,0,VALID,22.9359,VALID,60,VALID,0.587109,
2013-01-19, 03:30:04,VALID,1008.93,VALID,0,VALID,104,VALID,0,VALID,22.9147,VALID,60,VALID,0.371484,
2013-01-19, 03:31:04,VALID,1008.93,VALID,0,VALID,104,VALID,0,VALID,22.8952,VALID,60,VALID,0.19375,
2013-01-19, 03:32:04,VALID,1008.98,VALID,0,VALID,104,VALID,0,VALID,22.9147,VALID,57,VALID,0.615625,
2013-01-19, 03:33:04,VALID,1008.97,VALID,0,VALID,104,VALID,0,VALID,22.9147,VALID,55,VALID,0.467187,
2013-01-19, 03:34:04,VALID,1008.98,VALID,0,VALID,104,VALID,0,VALID,22.8952,VALID,55,VALID,0.460547,
2013-01-19, 03:35:04,VALID,1008.98,VALID,0,VALID,104,VALID,0,VALID,22.874,VALID,55,VALID,0.308984,
2013-01-19, 03:36:04,VALID,1009,VALID,0,VALID,104,VALID,0,VALID,22.8757,VALID,55,VALID,0.649219,
2013-01-19, 03:37:04,VALID,1009.01,VALID,0,VALID,104,VALID,0,VALID,22.8952,VALID,55,VALID,0.340625,
2013-01-19, 03:38:04,VALID,1008.99,VALID,0,VALID,104,VALID,0,VALID,22.8952,VALID,55,VALID,0.340234,
2013-01-19, 03:39:04,VALID,1009.01,VALID,0,VALID,104,VALID,0,VALID,22.8952,VALID,55,VALID,0.406641,
2013-01-19, 03:40:04,VALID,1009.03,VALID,0,VALID,104,VALID,0,VALID,22.8545,VALID,55,VALID,0.290234,
2013-01-19, 03:41:04,VALID,1009.04,VALID,0,VALID,104,VALID,0,VALID,22.874,VALID,55,VALID,0.433203,
2013-01-19, 03:42:04,VALID,1009.01,VALID,0,VALID,104,VALID,0,VALID,22.8952,VALID,55,VALID,0.395703,
2013-01-19, 03:43:04,VALID,1009.03,VALID,0,VALID,104,VALID,0,VALID,22.8952,VALID,55,VALID,0.585547,
2013-01-19, 03:44:04,VALID,1009.04,VALID,0,VALID,104,VALID,0,VALID,22.8935,VALID,55,VALID,0.233984,
2013-01-19, 03:45:04,VALID,1009.07,VALID,0,VALID,104,VALID,0,VALID,22.8935,VALID,55,VALID,0.625,
2013-01-19, 03:46:04,VALID,1009.06,VALID,0,VALID,104,VALID,0,VALID,22.9342,VALID,55,VALID,0.453906,
2013-01-19, 03:47:04,VALID,1009.11,VALID,0,VALID,104,VALID,0,VALID,22.9342,VALID,73,VALID,0.445703,
2013-01-19, 03:48:04,VALID,1009.09,VALID,0,VALID,104,VALID,0,VALID,22.9129,VALID,69,VALID,0.526953,
2013-01-19, 03:49:04,VALID,1009.08,VALID,0,VALID,104,VALID,0,VALID,22.9536,VALID,60,VALID,0.557422,
2013-01-19, 03:50:04,VALID,1009.11,VALID,0,VALID,104,VALID,0,VALID,22.9519,VALID,56,VALID,0.467969,
2013-01-19, 03:51:04,VALID,1009.08,VALID,0,VALID,104,VALID,0.112112,VALID,22.9519,VALID,56,VALID,0.228125,
2013-01-19, 03:52:04,VALID,1009.09,VALID,0,VALID,104,VALID,0,VALID,22.9731,VALID,56,VALID,0.326562,
2013-01-19, 03:53:04,VALID,1009.08,VALID,0,VALID,104,VALID,0,VALID,22.9731,VALID,56,VALID,0.134766,
2013-01-19, 03:54:04,VALID,1009.06,VALID,0,VALID,104,VALID,0,VALID,22.9324,VALID,56,VALID,0.296484,
2013-01-19, 03:55:04,VALID,1009.07,VALID,0,VALID,104,VALID,0,VALID,22.9324,VALID,56,VALID,0.161328,
2013-01-19, 03:56:04,VALID,1009.06,VALID,0,VALID,104,VALID,0,VALID,22.9129,VALID,56,VALID,0.178516,
2013-01-19, 03:57:04,VALID,1009.07,VALID,0,VALID,104,VALID,0,VALID,22.9536,VALID,56,VALID,0.0339844,
2013-01-19, 03:58:04,VALID,1009.06,VALID,0,VALID,104,VALID,0.112112,VALID,22.9129,VALID,56,VALID,0.366797,
2013-01-19, 03:59:04,VALID,1009.06,VALID,0,VALID,104,VALID,0,VALID,22.9129,VALID,55,VALID,0.280859,